Total_Precipitation_Accumulation
0.90 0.93 0.94 0.86 0.85 0.86 0.92 1.11 1.35 1.14 0.67 0.48 0.48 0.52 0.57 0.64 0.81 0.76 0.70 0.73 0.76 0.80 0.88 0.90 0.90 0.99 1.27 1.87 2.82 4.16 4.81 4.19 3.29 2.96 2.90 3.11 3.44 3.90
0.85 0.91 0.93 0.89 0.86 0.85 0.92 0.96 1.09 1.25 0.97 0.52 0.45 0.51 0.64 0.67 0.72 0.69 0.72 0.82 0.80 0.79 0.80 0.84 0.90 0.95 1.10 1.37 1.85 2.69 3.90 4.59 4.24 3.58 3.21 3.28 3.45 3.71
0.83 0.86 0.86 0.87 0.91 0.87 0.90 0.93 0.94 1.00 0.99 0.57 0.42 0.45 0.64 0.73 0.71 0.69 0.73 0.76 0.76 0.82 0.83 0.86 0.90 0.97 1.12 1.27 1.52 1.96 2.67 3.65 4.32 4.20 3.79 3.54 3.43 3.44
0.81 0.82 0.81 0.82 0.86 0.83 0.83 0.85 0.83 0.79 0.82 0.67 0.45 0.44 0.53 0.63 0.76 0.82 0.79 0.77 0.76 0.81 0.83 0.91 1.00 1.02 1.09 1.22 1.43 1.75 2.13 2.67 3.39 3.92 3.97 3.72 3.46 3.41
0.81 0.84 0.81 0.84 0.86 0.80 0.80 0.78 0.71 0.66 0.69 0.72 0.56 0.49 0.53 0.58 0.75 0.90 0.87 0.85 0.82 0.84 0.87 0.93 1.00 1.06 1.09 1.14 1.30 1.54 1.75 1.98 2.41 3.16 3.71 3.67 3.50 3.36
0.75 0.75 0.80 0.90 0.90 0.88 0.90 0.79 0.72 0.76 0.80 0.85 0.72 0.61 0.64 0.66 0.81 1.01 1.09 1.04 0.99 0.90 0.92 0.96 1.05 1.14 1.13 1.07 1.07 1.15 1.33 1.67 2.03 2.47 3.08 3.47 3.36 3.26
0.71 0.72 0.79 0.92 0.97 1.08 1.17 1.04 1.02 1.11 1.08 1.10 1.01 0.92 0.87 0.90 0.98 1.01 1.16 1.19 1.19 1.06 0.97 0.92 0.96 0.96 1.00 1.03 1.03 1.05 1.12 1.31 1.64 2.02 2.43 2.90 3.20 3.24
0.74 0.70 0.73 0.85 0.88 0.96 1.09 1.17 1.24 1.36 1.40 1.39 1.34 1.23 1.02 0.95 0.98 1.11 1.19 1.36 1.43 1.16 1.08 1.03 1.00 1.05 1.00 0.98 1.08 1.08 1.10 1.20 1.41 1.72 2.05 2.36 2.73 3.11
0.73 0.72 0.72 0.79 0.85 0.84 0.92 0.95 0.98 1.12 1.33 1.44 1.50 1.18 1.02 0.97 1.14 1.34 1.32 1.40 1.38 1.31 1.40 1.35 1.10 1.10 1.04 1.12 1.25 1.16 1.11 1.12 1.22 1.43 1.73 1.99 2.25 2.60
0.67 0.69 0.68 0.71 0.81 0.99 0.98 0.93 0.83 0.86 1.07 1.28 1.51 1.34 1.18 1.21 1.50 1.80 1.91 1.80 1.45 1.27 1.43 1.60 1.23 1.11 1.12 1.20 1.32 1.22 1.10 1.05 1.08 1.24 1.46 1.66 1.88 2.17
0.66 0.64 0.64 0.65 0.83 1.08 1.08 0.95 0.78 0.70 0.81 1.13 1.43 1.56 1.56 1.66 1.88 2.20 2.38 2.22 1.80 1.33 1.31 1.54 1.42 1.27 1.36 1.49 1.51 1.37 1.12 1.05 1.06 1.12 1.22 1.34 1.56 1.86
0.72 0.65 0.71 0.81 0.95 1.09 1.02 0.98 1.05 0.86 0.76 0.81 0.90 1.04 1.14 1.27 1.59 1.87 2.14 2.19 1.88 1.71 1.42 1.48 1.62 1.61 1.82 1.72 1.58 1.35 1.13 1.08 1.08 1.07 1.06 1.11 1.28 1.37
0.78 0.74 0.69 0.87 0.95 1.00 1.05 1.02 1.23 1.16 0.96 0.96 0.92 0.90 0.91 1.03 1.23 1.52 1.86 2.10 2.07 1.82 1.50 1.71 2.00 1.83 1.86 1.75 1.64 1.52 1.19 1.01 0.99 1.04 1.05 1.05 1.12 1.14
0.74 0.64 0.67 0.86 0.95 1.02 0.99 1.05 1.17 1.14 1.00 0.94 0.85 0.81 0.86 0.93 1.05 1.22 1.52 1.74 1.78 1.63 1.39 1.67 2.20 2.00 1.85 1.60 1.53 1.63 1.43 1.16 1.00 0.97 0.97 1.15 1.15 1.09
0.74 0.80 0.85 0.94 0.95 0.88 0.90 0.98 0.98 0.93 1.03 1.02 0.87 0.79 0.84 0.97 1.03 1.08 1.21 1.48 1.63 1.58 1.49 1.54 1.90 2.01 1.99 1.74 1.42 1.48 1.56 1.45 1.19 1.08 1.01 0.98 0.91 0.85
0.90 0.93 0.99 0.97 0.87 0.77 0.78 0.79 0.76 0.84 0.99 1.02 0.89 0.79 0.77 0.86 0.99 1.08 1.18 1.33 1.54 1.59 1.57 1.61 1.86 2.20 2.16 1.72 1.50 1.44 1.38 1.54 1.43 1.25 1.10 0.98 0.84 0.68
1.10 1.17 1.09 0.99 0.93 0.80 0.69 0.62 0.64 0.77 0.89 0.85 0.85 0.83 0.79 0.81 0.88 0.98 1.17 1.31 1.46 1.51 1.61 1.77 1.92 2.11 2.19 2.11 1.91 1.54 1.32 1.27 1.33 1.31 1.23 1.17 1.04 0.82
1.24 1.18 0.97 0.84 0.79 0.75 0.70 0.65 0.61 0.63 0.69 0.76 0.81 0.83 0.83 0.84 0.87 0.89 1.04 1.25 1.40 1.44 1.52 1.67 1.86 2.06 2.25 2.35 2.13 1.72 1.41 1.26 1.32 1.38 1.30 1.28 1.25 1.04
1.10 0.92 0.77 0.70 0.68 0.67 0.65 0.61 0.58 0.54 0.59 0.66 0.70 0.74 0.80 0.84 0.86 0.89 0.95 1.09 1.26 1.39 1.49 1.58 1.72 1.92 2.08 2.22 2.30 1.94 1.61 1.37 1.35 1.53 1.50 1.32 1.23 1.12
0.89 0.80 0.73 0.67 0.64 0.66 0.65 0.63 0.60 0.57 0.61 0.62 0.63 0.64 0.72 0.81 0.84 0.84 0.87 0.99 1.15 1.28 1.38 1.46 1.63 1.83 1.98 1.94 2.03 2.06 1.95 1.65 1.44 1.55 1.63 1.52 1.41 1.35
0.80 0.78 0.75 0.72 0.69 0.69 0.69 0.68 0.67 0.64 0.61 0.63 0.63 0.62 0.62 0.70 0.74 0.72 0.77 0.87 1.03 1.16 1.24 1.26 1.40 1.61 1.83 1.87 1.79 1.76 1.94 1.97 1.66 1.59 1.66 1.71 1.67 1.57
0.73 0.79 0.79 0.78 0.77 0.77 0.77 0.75 0.73 0.68 0.65 0.64 0.62 0.60 0.59 0.62 0.65 0.66 0.72 0.78 0.85 0.96 1.10 1.18 1.29 1.53 1.81 1.96 1.87 1.73 1.80 1.97 1.99 1.80 1.68 1.69 1.80 1.75
0.82 0.82 0.81 0.81 0.81 0.82 0.82 0.78 0.73 0.66 0.61 0.60 0.60 0.58 0.59 0.60 0.60 0.64 0.68 0.72 0.80 0.87 0.98 1.14 1.28 1.44 1.66 1.84 1.94 1.86 1.74 1.77 1.86 1.89 1.98 1.77 1.40 1.20